Regional Weather Roundup
Issued by NWS

Home | Current Version | Previous Version | Graphics & Text | Print | Product List | Glossary Off
Versions: 1 2 3 4 5 6 7 8 9 10 11 12 13 14 15 16 17 18 19 20 21 22 23 24 25 26 27 28 29 30 31 32 33 34 35 36 37 38 39 40 41 42 43 44 45 46 47 48 49 50

000
ASUS43 KMPX 070310
RWRMN
WEATHER ROUNDUP FOR MINNESOTA
NATIONAL WEATHER SERVICE TWIN CITIES/CHANHASSEN MN
900 PM CST TUE DEC 06 2016


NOTE: "FAIR" INDICATES FEW OR NO CLOUDS BELOW 12,000 FEET WITH NO
SIGNIFICANT WEATHER AND/OR OBSTRUCTIONS TO VISIBILITY. N/A MEANS
CURRENT SKY AND/OR WEATHER CONDITIONS ARE NOT AVAILABLE.

MNZ060>063-068>070-070400-
   Twin Cities Metro

CITY           SKY/WX    TMP DP  RH WIND       PRES   REMARKS
TWIN CITIES    FLURRIES  19  10  68 W20G33    29.80R WCI   3
ST PAUL        FLURRIES  20  12  71 W15G26    29.82R WCI   6
CRYSTAL        FLURRIES  20  10  65 W20G31    29.78R WCI   4
LAKEVILLE      FLURRIES  16  10  79 W17G31    29.82R WCI   0
EDEN PRAIRIE   CLOUDY    18   9  68 W14G31    29.81R WCI   4
SOUTH ST PAUL  CLOUDY    20  11  68 SW18      29.81R WCI   5
LAKE ELMO      CLOUDY    21  14  73 W21G28    29.79R WCI   6
$$
MNZ001>005-007-008-013>017-022>024-027-028-070400-
   Northwest Minnesota

CITY           SKY/WX    TMP DP  RH WIND       PRES   REMARKS
BEMIDJI        LGT SNOW  20  17  88 W22G31    29.50R WCI   4
HALLOCK        SNOW      21  19  93 NW37G44   29.56R VSB 1/2 WCI   1
ROSEAU         LGT SNOW  23  18  80 SW3       29.46R
WARROAD        CLOUDY    21  18  86 SW5       29.45R WCI  15
THIEF RVR FALL LGT SNOW  21  19  92 NW29G37   29.55R VSB 1   WCI   3
CROOKSTON      LGT SNOW  18  18 100 NW36      29.62R VSB 3/4 WCI  -3
FOSSTON        LGT SNOW  18  16  93 W25G35    29.56R WCI  -1
DETROIT LAKES  LGT SNOW  16  14  93 W25G39    29.65R WCI  -3
MOORHEAD       CLOUDY    14   9  79 W33G41    29.74R WCI  -8
PARK RAPIDS    LGT SNOW  19  12  74 W21       29.57R WCI   3
$$
MNZ006-009>011-018-025>026-070400-
   North Central Minnesota

CITY           SKY/WX    TMP DP  RH WIND       PRES   REMARKS
BAUDETTE       CLOUDY    21  18  88 CALM      29.44R
FLAG ISLAND    FLURRIES  23  19  86 W5        29.43R WCI  17
INTL FALLS     LGT SNOW  20  16  84 CALM      29.42R FOG
WASKISH        FLURRIES  23  19  86 W12       29.45S WCI  12
BIG FORK       FLURRIES  23  18  80 W5        29.45R WCI  17
LONGVILLE      CLOUDY    21  18  86 W14G22    29.52R WCI   8
GRAND RAPIDS   LGT SNOW  22  19  89 W10       29.49R FOG     WCI  11
CRANE LAKE     LGT SNOW  19  18  93 CALM      29.44R
ORR            MIX PCPN  19  16  86 CALM      29.38R
COOK           FLURRIES  21  18  86 SW3       29.42R
$$
MNZ012-019>021-037-070400-
   Northeast Minnesota

CITY           SKY/WX    TMP DP  RH WIND       PRES   REMARKS
DULUTH         LGT SNOW  20  16  84 SW18G26   29.49R FOG     WCI   5
ELY            LGT SNOW  19  18  93 S7        29.41S WCI  10
HIBBING        LGT SNOW  21  19  92 W9        29.44R FOG     WCI  11
EVELETH        FLURRIES  22  20  90 SW12      29.44R WCI  11
DULUTH HARBOR  LGT SNOW  25  19  80 SW21G28   29.55R WCI  10
TWO HARBORS    LGT SNOW  23  18  80 SW13G20   29.48R WCI  11
SILVER BAY     LGT SNOW  21  19  93 SW14G21   29.46S WCI   8
GRAND MARAIS     N/A     25  22  88 W10       29.51S WCI  15
G MARAIS ARPRT LGT SNOW  18  14  86 S8        29.44R VSB 1   WCI   7
$$
MNZ029>031-032-039>041-046>048-054>057-064-070400-
   West Central Minnesota

CITY           SKY/WX    TMP DP  RH WIND       PRES   REMARKS
FERGUS FALLS   LGT SNOW  14  10  85 NW30G38   29.80R WCI  -7
WHEATON        LGT SNOW  16  12  86 W22G40    29.85R WCI  -2
MORRIS         LGT SNOW  16  10  79 W30G38    29.80R WCI  -4
ALEXANDRIA     LGT SNOW  15  12  88 W21G37    29.74R VSB 1   WCI  -2
ELBOW LAKE     LGT SNOW  14  12  92 NW25G32   29.78R VSB 3/4 WCI  -5
WADENA         MIX PCPN  16  10  79 W20G31    29.64R WCI  -1
GLENWOOD       LGT SNOW  16  12  86 W29G35    29.75R VSB 1   WCI  -4
APPLETON       FLURRIES  16   9  73 W25G37    29.85R WCI  -3
BENSON         FLURRIES  16   9  73 NW24G33   29.82R WCI  -3
ORTONVILLE     CLOUDY    16   7  67 NW23G30   29.86R WCI  -2
MADISON        PTCLDY    16   9  73 W28G35    29.89R WCI  -4
WILLMAR        CLOUDY    18  12  79 W28       29.83R WCI  -1
$$
MNZ033>034-036-042>043-049>051-058-059-070400-
   Central Minnesota

CITY           SKY/WX    TMP DP  RH WIND       PRES   REMARKS
ST CLOUD       LGT SNOW  17  13  84 W21       29.74R FOG     WCI   0
PAYNESVILLE    LGT SNOW  16  11  81 W26G36    29.78R WCI  -3
AITKIN         FLURRIES  21  14  73 SW14G22   29.56R WCI   8
PINE RIVER     LGT SNOW  19  16  86 W12G21    29.60R WCI   7
BRAINERD       LGT SNOW  18  13  80 SW18G29   29.61R WCI   2
STAPLES        LGT SNOW  16  12  86 W23       29.64R WCI  -2
LONG PRAIRIE   LGT SNOW  18  12  79 SW22G29   29.71R WCI   0
LITTLE FALLS   FLURRIES  19  12  73 W16G25    29.69R WCI   5
LITCHFIELD     FLURRIES  18  12  79 W14G25    29.80R WCI   4
BUFFALO        FLURRIES  19  12  75 W17G26    29.79R WCI   4
MAPLE LAKE     FLURRIES  20  14  77 W13G28    29.78R WCI   7
HUTCHINSON     PTCLDY    17  11  79 W23G30    29.83R WCI  -1
$$
MNZ037-044-045-052-053-070400-
   East Central Minnesota

CITY           SKY/WX    TMP DP  RH WIND       PRES   REMARKS
PRINCETON      LGT SNOW  19  12  73 SW18G31   29.71S WCI   4
MORA           FLURRIES  19  12  73 W16G22    29.68R WCI   5
CAMBRIDGE      FLURRIES  21  10  63 SW12G24   29.70R WCI   9
RUSH CITY      CLOUDY    19  12  73 SW17G29   29.70R WCI   4
MOOSE LAKE     LGT SNOW  21  16  79 SW16G22   29.56R WCI   7
HINCKLEY       FLURRIES  21  14  73 SW23      29.65R WCI   5
CLOQUET        LGT SNOW  19  14  79 SW15      29.52R WCI   5
MCGREGOR       CLOUDY    21  18  86 SW15G22   29.56R WCI   8
$$
MNZ071>073-080-081-089-090-097-098-070400-
   Southwest Minnesota

CITY           SKY/WX    TMP DP  RH WIND       PRES   REMARKS
MONTEVIDEO     CLOUDY    16   9  73 NW20G29   29.88R WCI  -1
GRANITE FALLS  CLEAR     16  10  76 W24G32    29.90R WCI  -3
CANBY          CLEAR     14   8  75 NW25G33   29.91R WCI  -5
MARSHALL       CLEAR     13   6  74 W29G39    29.90R WCI  -8
REDWOOD FALLS  CLOUDY    15   6  67 W23G33    29.89R WCI  -3
OLIVIA         CLEAR     18  10  73 W26G32    29.85R WCI  -1
PIPESTONE      PTCLDY    12   7  79 W29G36    29.93R WCI  -9
WINDOM         MOCLDY    14   7  73 W23G32    29.91R WCI  -5
WORTHINGTON    FLURRIES  12   7  79 W28G36    29.94R WCI  -9
JACKSON        MOCLDY    14   9  79 W24G31    29.94R WCI  -5
TRACY          CLEAR     15   8  76 W17G26    29.91R WCI  -2
SLAYTON        PTCLDY    12   7  80 W30G37    29.90R WCI -10
$$
MNZ065>067-074>077-082>085-091>093-070400-
   South Central Minnesota

CITY           SKY/WX    TMP DP  RH WIND       PRES   REMARKS
MANKATO        FLURRIES  16  10  77 W23G29    29.89R WCI  -2
NEW ULM        CLOUDY    16   7  67 W22G28    29.90R WCI  -2
ST JAMES       CLOUDY    16   9  73 W21G28    29.93R WCI  -2
FAIRMONT       FLURRIES  17  10  74 W29       29.94  WCI  -2
GLENCOE        CLOUDY    18  13  82 W12G24    29.83R WCI   5
FARIBAULT      FLURRIES  18  12  79 SW16G24   29.87R WCI   3
OWATONNA       CLOUDY    18  10  73 W29G35    29.87R WCI  -2
WASECA         CLOUDY    19  12  73 W29G35    29.90R WCI   1
ALBERT LEA     PTCLDY    21  16  79 W15G28    29.89R WCI   8
$$
MNZ078>079-086>088-094>096-070400-
   Southeast Minnesota

CITY           SKY/WX    TMP DP  RH WIND       PRES   REMARKS
ROCHESTER      FLURRIES  19  12  74 W31G37    29.84R WCI   0
RED WING       FLURRIES  21  10  63 W22G30    29.82R WCI   5
STANTON        FLURRIES  20  11  69 W17G30    29.84R WCI   5
DODGE CENTER   FLURRIES  18  12  79 W20G29    29.84R WCI   1
WINONA         CLOUDY    25  18  74 W10G20    29.86R WCI  15
AUSTIN         MOCLDY    19  12  73 W18G28    29.88R WCI   4
PRESTON        FLURRIES  19  14  81 W20       29.86S WCI   3
$$
ABBREVIATIONS USED IN REMARKS
   TC - TEMPERATURES IN CELSIUS
  WCI - WIND CHILL INDEX
   HX - HEAT INDEX
  VSB - VISIBILITY
$$




USA.gov is the U.S. government's official web portal to all federal, state and local government web resources and services.